Location: Prague
(50.0830°N, 14.4670°E)
Time: 06:14:05
(UTC+02:00)

DOVE 4 - Pass Details

Date: 03 April 2023
Orbit: 584 x 791 km, 97.8° (Epoch: 29 May)

Event Time Altitude Azimuth Distance (km) Brightness Sun altitude
Rises 22:45:03 0° 25° (NNE) 3,114 ? -26.7°
Reaches altitude 10° 22:48:02 10° 44° (NE) 2,146 ? -27.0°
Enters shadow 22:48:30 12° 48° (NE) 2,022 ? -27.1°
